Location: Espelette
(43.3402°N, 1.4474°W)
Time: 18:17:54
(UTC+00:00)

Cosmos 1356 Rocket - Pass Details

Date: 19 May 2025
Orbit: 517 x 565 km, 81.2° (Epoch: 23 June)

Event Time Altitude Azimuth Distance (km) Brightness Sun altitude
Exits shadow 22:03:56 27° 224° (SW) 1,101 4.7 -21.1°
Maximum altitude 22:05:49 47° 283° (WNW) 752 4.2 -21.3°
Drops below altitude 10° 22:09:48 10° 359° (N) 1,861 6.9 -21.6°
Sets 22:12:03 0° 5° (N) 2,755 7.8 -21.8°
